[[{"header":{"parameterUnit":"m.s-1","parameterCategory":1,"la1":30.2991,"la2":30.254,"lo1":-89.0895,"lo2":-89.0444,"dy":0.0017,"dx":0.0017,"nx":28,"ny":28,"refTime":"2024-04-21T21:00:00:Z","depth":0,"parameterNumber":2,"parameterNumberName":"U-component_of_WINDS"},"data":[0,0,0,0,0,0,0,0,0,0,0,0,0,0,0,0,0,0,0,0,0,0,0,0,0,0,0,0,0,0,0,0,0,0,0,0,0,0,0,0,0,0,0,0,0,0,0,0,0,0,0,0,0,0,0,0,0,0,-2.8972,-2.8972,0,-2.8972,-2.8972,-2.8972,-2.8909,-2.8907,-2.8906,-2.8904,-2.8905,-2.8907,-2.8908,0,0,0,0,0,0,0,0,0,0,0,0,0,-2.8917,-2.8919,-2.8972,-2.8972,-2.8972,-2.8972,-2.8972,-2.8972,-2.8909,-2.8907,-2.8905,-2.8903,-2.8905,-2.8906,-2.8908,0,0,0,0,0,0,0,0,0,0,0,0,0,-2.8932,-2.8919,-2.8972,-2.894,-2.8938,-2.8972,-2.8972,-2.8972,-2.891,-2.8907,-2.8905,-2.8902,-2.8904,-2.8906,-2.8909,-2.8973,0,0,-2.8916,-2.8917,0,0,0,0,0,0,0,0,-2.8931,-2.8934,-2.8945,-2.8943,-2.894,-2.8938,-2.8953,-2.8972,-2.891,-2.892,-2.8904,-2.8901,-2.8918,-2.8919,-2.8925,-2.8973,-2.8973,-2.8916,-2.8917,-2.8918,-2.8919,0,0,0,0,0,0,0,-2.893,-2.8933,-2.8972,-2.8945,-2.8942,-2.8926,-2.8926,-2.8956,-2.8933,-2.8919,-2.8915,-2.8916,-2.8916,-2.8923,-2.8924,-2.8973,-2.8916,-2.8918,-2.8919,-2.892,-2.9075,-2.9077,0,0,0,0,0,0,-2.8933,-2.8933,-2.8972,-2.8972,-2.8929,-2.893,-2.8929,-2.8941,-2.8933,-2.8929,-2.8918,-2.8913,-2.892,-2.8922,-2.8924,-2.8999,-2.8918,-2.8921,-2.8922,-2.9072,-2.9075,-2.9078,0,0,0,0,0,0,-2.8932,-2.8937,-2.8972,-2.8951,-2.8954,-2.8933,-2.8947,-2.8942,-2.8949,-2.8931,-2.8927,-2.8929,-2.8918,-2.8921,-2.8961,-2.8999,-2.8922,-2.8924,-2.9069,-2.9073,-2.9077,-2.9151,0,0,0,0,0,0,-2.8931,-2.8937,-2.8962,-2.8952,-2.8956,-2.9009,-2.895,-2.8944,-2.8953,-2.8946,-2.8941,-2.8937,-2.8916,-2.8958,-2.8964,-2.9001,-2.8926,-2.9066,-2.9071,-2.9076,-2.9145,-2.9157,-2.9167,0,0,0,0,0,-2.8929,-2.8982,-2.8963,-2.8968,-2.8986,-2.9012,-2.9014,-2.8988,-2.8956,-2.898,-2.8969,-2.8937,-2.8993,-2.8963,-2.8969,-2.9007,-2.9063,-2.9069,-2.9075,-2.914,-2.9155,-2.9167,0,0,0,0,0,0,-2.8997,-2.8981,-2.8959,-2.9011,-2.9013,-2.9001,-2.9031,-2.9004,-2.9016,-2.9009,-2.8977,-2.8976,-2.9022,-2.9018,-2.8985,-2.9069,-2.9023,-2.903,-2.907,-2.9084,-2.9094,-2.9095,-2.8928,0,0,0,0,0,-2.9018,-2.9041,-2.9025,-2.9072,-2.9074,-2.9053,-2.9063,-2.9043,-2.9044,-2.9045,-2.9037,-2.9039,-2.9057,-2.907,-2.9086,-2.9144,-2.9142,-2.9173,-2.9184,-2.9193,-2.92,-2.9231,-2.9245,-2.9098,-2.9098,-2.9098,0,0,-2.9062,-2.9055,-2.9072,-2.9086,-2.9085,-2.9109,-2.9054,-2.9082,-2.9099,-2.9049,-2.9087,-2.9081,-2.9082,-2.9132,-2.9153,-2.913,-2.924,-2.9201,-2.9208,-2.921,-2.9239,-2.9253,-2.9265,-2.9102,-2.9102,-2.9101,0,0,-2.9154,-2.9151,-2.919,-2.9191,-2.9191,-2.9176,-2.9185,-2.9177,-2.9171,-2.9209,-2.9172,-2.9192,-2.9224,-2.9226,-2.9231,-2.9324,-2.9295,-2.933,-2.9388,-2.9419,-2.943,-2.944,-2.9474,-2.9487,-2.9337,-2.9337,-2.9337,0,-2.9209,-2.9243,-2.9214,-2.9245,-2.9252,-2.9207,-2.9247,-2.9248,-2.9254,-2.926,-2.9233,-2.9272,-2.9269,-2.9319,-2.9342,-2.9347,-2.9358,-2.9331,-2.9431,-2.9441,-2.945,-2.9482,-2.9494,-2.9341,-2.9341,-2.934,-2.934,0,-2.9311,-2.9335,-2.9367,-2.9373,-2.9384,-2.9419,-2.9395,-2.9409,-2.9388,-2.9376,-2.9415,-2.941,-2.9424,-2.9434,-2.9414,-2.9482,-2.9467,-2.9436,-2.9389,-2.9468,-2.9498,-2.951,-2.9347,-2.9346,-2.9345,-2.9344,0,0,-2.9447,-2.9436,-2.9448,-2.945,-2.9446,-2.9465,-2.9498,-2.9511,-2.9525,-2.9529,-2.9557,-2.9584,-2.9555,-2.9562,-2.9541,-2.9568,-2.9642,-2.9533,-2.9533,-2.9554,-2.9717,-2.9742,-2.9756,-2.9623,-2.9625,-2.9626,-2.9717,0,-2.9537,-2.9593,-2.9567,-2.9626,-2.9648,-2.9606,-2.9634,-2.9635,-2.9625,-2.9643,-2.9631,-2.9651,-2.9611,-2.9615,-2.9639,-2.9628,-2.9675,-2.9621,-2.9648,-2.965,-2.9651,-2.9771,-2.9797,-2.9883,-2.9729,-2.9731,-2.9732,0,-2.965,-2.9659,-2.972,-2.9712,-2.9721,-2.9747,-2.9758,-2.9775,-2.9775,-2.9765,-2.9772,-2.9745,-2.9777,-2.973,-2.9774,-2.9738,-2.9747,-2.9743,-2.9746,-2.9749,-2.9697,-2.9778,-2.991,-2.9924,-2.975,-2.9748,-2.9747,0,-2.9745,-2.9772,-2.9812,-2.9815,-2.9807,-2.9826,-2.9824,-2.9821,-2.9831,-2.984,-2.9846,-2.9859,-2.9866,-2.9877,-2.9854,-2.9821,-2.9901,-2.9852,-2.9895,-2.9896,-2.9915,-2.9914,-3.0051,-2.9919,-2.9919,-2.9919,-2.9918,0,-2.9849,-2.9888,-2.9855,-2.988,-2.9922,-2.9892,-2.9935,-2.9928,-2.9926,-2.9949,-2.9912,-2.9935,-2.9903,-2.9922,-2.9904,-2.9944,-2.9947,-2.9941,-2.9936,-2.9945,-2.9946,-2.9951,-2.9945,-2.9922,-2.9921,-2.9921,-2.992,0,-2.9962,-2.9941,-2.9982,-2.9971,-2.9969,-3.0001,-2.9991,-3.0013,-3.0,-3.0029,-3.0034,-3.0014,-3.0034,-3.0013,-3.0032,-3.002,-3.0073,-3.0059,-3.0073,-3.007,-3.0114,-3.0111,-3.0261,-3.0279,-3.0135,-3.0136,-3.0137,0,-3.0031,-3.006,-3.0051,-3.0064,-3.0063,-3.0084,-3.0094,-3.0065,-3.0077,-3.0079,-3.0101,-3.0119,-3.0131,-3.0166,-3.0153,-3.0168,-3.0154,-3.0205,-3.0156,-3.0164,-3.0156,-3.0155,-3.0158,-3.0216,-3.0218,-3.0219,-3.022,0,-3.0155,-3.0143,-3.0158,-3.017,-3.0183,-3.0191,-3.0196,-3.0208,-3.0178,-3.0193,-3.0214,-3.0224,-3.0243,-3.0261,-3.0272,-3.0269,-3.024,-3.0236,-3.0247,-3.0257,-3.0264,-3.0262,-3.0102,-3.0233,-3.0232,-3.0231,-3.023,-3.0229,-3.0248,-3.0272,-3.027,-3.0289,-3.0289,-3.0295,-3.0316,-3.0305,-3.0321,-3.0335,-3.0316,-3.0342,-3.0341,-3.0352,-3.0353,-3.0373,-3.0351,-3.0367,-3.0371,-3.0375,-3.0383,-3.026,-3.0374,-3.0374,-3.0374,-3.0373,-3.0373,0,-3.0371,-3.0368,-3.0385,-3.0393,-3.0408,-3.0378,-3.0382,-3.0397,-3.042,-3.0421,-3.0434,-3.0458,-3.0475,-3.0463,-3.0477,-3.0496,-3.0483,-3.0501,-3.05,-3.05,-3.0401,-3.039,-3.0511,-3.0511,-3.0511,-3.0511,-3.0511,-3.0511,-3.0437,-3.0477,-3.0465,-3.0504,-3.05,-3.0524,-3.0529,-3.0535,-3.0535,-3.0564,-3.0578,-3.0569,-3.0565,-3.0579,-3.0594,-3.059,-3.0597,-3.062,-3.0612,-3.052,-3.0506,-3.0494,-3.0484,-3.0622,-3.0622,-3.0709,-3.071,-3.071]},{"header":{"parameterUnit":"m.s-1","parameterCategory":1,"la1":30.2991,"la2":30.254,"lo1":-89.0895,"lo2":-89.0444,"dy":0.0017,"dx":0.0017,"nx":28,"ny":28,"refTime":"2024-04-21T21:00:00:Z","depth":0,"parameterNumber":3,"parameterNumberName":"V-component_of_WINDS"},"data":[0,0,0,0,0,0,0,0,0,0,0,0,0,0,0,0,0,0,0,0,0,0,0,0,0,0,0,0,0,0,0,0,0,0,0,0,0,0,0,0,0,0,0,0,0,0,0,0,0,0,0,0,0,0,0,0,0,0,-6.0475,-6.0476,0,-6.0534,-6.0535,-6.0535,-6.0485,-6.0483,-6.048,-6.0478,-6.0534,-6.0537,-6.054,0,0,0,0,0,0,0,0,0,0,0,0,0,-6.0315,-6.0318,-6.0475,-6.0476,-6.0477,-6.0534,-6.0535,-6.0536,-6.0485,-6.0482,-6.048,-6.0478,-6.0533,-6.0537,-6.0541,0,0,0,0,0,0,0,0,0,0,0,0,0,-6.038,-6.0319,-6.0475,-6.0459,-6.0458,-6.0534,-6.0535,-6.0536,-6.0486,-6.0482,-6.0479,-6.0476,-6.0531,-6.0536,-6.0541,-6.0635,0,0,-6.0557,-6.0559,0,0,0,0,0,0,0,0,-6.0377,-6.0386,-6.046,-6.046,-6.0459,-6.0499,-6.0498,-6.0569,-6.0486,-6.0475,-6.0478,-6.0475,-6.0524,-6.053,-6.0548,-6.0638,-6.064,-6.0557,-6.056,-6.0563,-6.0564,0,0,0,0,0,0,0,-6.0372,-6.0383,-6.0498,-6.0461,-6.0461,-6.0447,-6.0453,-6.0512,-6.0516,-6.0476,-6.0472,-6.048,-6.0523,-6.0543,-6.0548,-6.0641,-6.0557,-6.0562,-6.0565,-6.0567,-6.0811,-6.0815,0,0,0,0,0,0,-6.037,-6.038,-6.0497,-6.05,-6.041,-6.0452,-6.0459,-6.0489,-6.0515,-6.0517,-6.0483,-6.0477,-6.0536,-6.0543,-6.055,-6.0662,-6.0563,-6.0567,-6.057,-6.0808,-6.0812,-6.0816,0,0,0,0,0,0,-6.0367,-6.0381,-6.0494,-6.0439,-6.0453,-6.0458,-6.0493,-6.0492,-6.0511,-6.0521,-6.0521,-6.0502,-6.0533,-6.0543,-6.0615,-6.0664,-6.057,-6.0574,-6.0804,-6.0809,-6.0814,-6.0888,0,0,0,0,0,0,-6.0362,-6.038,-6.0417,-6.044,-6.0456,-6.056,-6.0496,-6.0495,-6.0521,-6.0515,-6.0539,-6.054,-6.0532,-6.0608,-6.062,-6.0669,-6.0578,-6.08,-6.0806,-6.0812,-6.0881,-6.0895,-6.0906,0,0,0,0,0,-6.0357,-6.0434,-6.0419,-6.0433,-6.0502,-6.0562,-6.0571,-6.0561,-6.0525,-6.0562,-6.0568,-6.0539,-6.0656,-6.0615,-6.0629,-6.068,-6.0797,-6.0804,-6.0812,-6.0875,-6.0892,-6.0906,0,0,0,0,0,0,-6.0414,-6.0437,-6.042,-6.0508,-6.0534,-6.0554,-6.06,-6.0579,-6.0615,-6.0607,-6.0592,-6.0598,-6.0674,-6.0684,-6.0638,-6.0773,-6.072,-6.0731,-6.0764,-6.078,-6.0792,-6.0788,-6.0583,0,0,0,0,0,-6.0437,-6.0486,-6.0502,-6.0578,-6.0592,-6.0594,-6.062,-6.061,-6.0636,-6.0646,-6.0657,-6.0682,-6.0724,-6.0752,-6.0792,-6.0882,-6.0886,-6.0924,-6.0936,-6.0947,-6.0956,-6.1005,-6.1022,-6.0841,-6.0841,-6.0841,0,0,-6.0485,-6.0503,-6.0535,-6.059,-6.0609,-6.0659,-6.0603,-6.0658,-6.0694,-6.0653,-6.0723,-6.0732,-6.0758,-6.084,-6.0876,-6.0851,-6.1007,-6.0957,-6.0965,-6.0969,-6.1015,-6.1032,-6.1047,-6.0847,-6.0846,-6.0845,0,0,-6.0597,-6.0616,-6.0682,-6.0703,-6.0733,-6.0734,-6.0749,-6.0773,-6.0778,-6.0847,-6.0818,-6.086,-6.0933,-6.0954,-6.0974,-6.1094,-6.107,-6.1107,-6.1174,-6.1222,-6.1236,-6.1249,-6.1292,-6.1308,-6.1117,-6.1117,-6.1117,0,-6.0653,-6.0728,-6.0717,-6.0775,-6.08,-6.0767,-6.0833,-6.0853,-6.0894,-6.0911,-6.0882,-6.0973,-6.0989,-6.1075,-6.1105,-6.1122,-6.1139,-6.1105,-6.1235,-6.1248,-6.1259,-6.13,-6.1317,-6.1121,-6.1121,-6.112,-6.112,0,-6.0794,-6.0847,-6.0895,-6.0938,-6.0968,-6.1029,-6.1027,-6.1059,-6.1047,-6.105,-6.1121,-6.1139,-6.1181,-6.1201,-6.1189,-6.1286,-6.1269,-6.1238,-6.1185,-6.1281,-6.132,-6.1335,-6.1128,-6.1126,-6.1125,-6.1124,0,0,-6.0944,-6.0982,-6.1,-6.1019,-6.105,-6.109,-6.1149,-6.1192,-6.122,-6.1249,-6.1298,-6.1361,-6.1332,-6.1355,-6.1345,-6.1386,-6.1482,-6.135,-6.135,-6.1374,-6.159,-6.1614,-6.1632,-6.1465,-6.1468,-6.1471,-6.1588,0,-6.1059,-6.1164,-6.1157,-6.1255,-6.1303,-6.1273,-6.1325,-6.1349,-6.1353,-6.1394,-6.1398,-6.1443,-6.1402,-6.1416,-6.1456,-6.1462,-6.1525,-6.1453,-6.151,-6.1512,-6.1505,-6.1652,-6.1677,-6.1787,-6.1603,-6.1605,-6.1607,0,-6.1206,-6.1243,-6.1347,-6.1372,-6.1392,-6.1438,-6.1478,-6.1517,-6.1543,-6.1544,-6.157,-6.1552,-6.1611,-6.1557,-6.1636,-6.1588,-6.161,-6.1617,-6.1621,-6.1626,-6.1566,-6.1662,-6.1822,-6.1839,-6.1631,-6.1629,-6.1627,0,-6.1306,-6.1381,-6.1454,-6.1471,-6.1501,-6.1535,-6.1548,-6.1572,-6.1599,-6.1632,-6.1649,-6.1689,-6.1711,-6.1741,-6.1735,-6.1696,-6.1816,-6.1761,-6.1818,-6.1818,-6.1845,-6.1843,-6.2011,-6.1859,-6.1858,-6.1858,-6.1858,0,-6.1435,-6.15,-6.1499,-6.1544,-6.1615,-6.1605,-6.1676,-6.1685,-6.1707,-6.1751,-6.1727,-6.1769,-6.1757,-6.1799,-6.1794,-6.1861,-6.187,-6.1872,-6.187,-6.1875,-6.1875,-6.189,-6.1882,-6.1862,-6.1861,-6.1861,-6.186,0,-6.1559,-6.1561,-6.1638,-6.1661,-6.1669,-6.172,-6.1739,-6.178,-6.1783,-6.184,-6.1853,-6.1857,-6.1905,-6.1901,-6.1954,-6.195,-6.2034,-6.2022,-6.2026,-6.2024,-6.208,-6.2075,-6.2264,-6.2289,-6.212,-6.2121,-6.2123,0,-6.1642,-6.1692,-6.1721,-6.175,-6.1767,-6.1814,-6.1841,-6.1833,-6.1863,-6.1897,-6.1934,-6.198,-6.2016,-6.2093,-6.2099,-6.214,-6.2129,-6.2193,-6.2135,-6.2139,-6.2131,-6.2129,-6.2133,-6.2204,-6.2206,-6.2208,-6.2209,0,-6.1788,-6.1787,-6.1829,-6.1872,-6.1907,-6.1939,-6.1969,-6.1994,-6.1989,-6.2023,-6.2072,-6.2101,-6.2156,-6.2201,-6.224,-6.2252,-6.223,-6.2227,-6.2242,-6.2248,-6.2248,-6.225,-6.2057,-6.2223,-6.2221,-6.222,-6.222,-6.2219,-6.1894,-6.1938,-6.1965,-6.2013,-6.2035,-6.2064,-6.2104,-6.2113,-6.2154,-6.22,-6.2192,-6.2247,-6.2272,-6.2322,-6.2338,-6.238,-6.2357,-6.2379,-6.2385,-6.239,-6.2397,-6.2241,-6.2387,-6.2386,-6.2386,-6.2386,-6.2385,0,-6.204,-6.2057,-6.2101,-6.2145,-6.2182,-6.216,-6.2191,-6.2224,-6.2274,-6.2299,-6.2336,-6.2393,-6.2437,-6.2447,-6.2489,-6.2521,-6.2512,-6.2532,-6.253,-6.2533,-6.2415,-6.2398,-6.2539,-6.2539,-6.2539,-6.2539,-6.2539,-6.2539,-6.2121,-6.2193,-6.2195,-6.2277,-6.2292,-6.2348,-6.2368,-6.2394,-6.2415,-6.248,-6.2517,-6.2525,-6.2544,-6.2587,-6.2626,-6.2628,-6.2645,-6.267,-6.2667,-6.2557,-6.2542,-6.2527,-6.2511,-6.2673,-6.2673,-6.2782,-6.2783,-6.2784]}]]